WXM80 ListenWXM80 Stop

You find our weather info also at:

UK Metoffice

WeatherCloud

Weather Underground

Northeastern Weather Network

AWEKAS

Citizen Weather Observer Program (CWOP)

HAMweather, WeatherForYou, PWS Weather


Weather Underground History page Text

Daily Summary for October 17, 2017 Units:  Metric    English   Both
« Previous Day
Next Day »
Daily Weekly Monthly Yearly Custom
  High: Low: Average:
Temperature: 15.6 °C 7.5 °C 10.6 °C
Dew Point: 6.8 °C 1.8 °C 4.2 °C
Humidity: 79 % 44 % 66 %
Wind Speed: 17.1 km/h 0 km/h 5.3 km/h
Wind Gust: 29.6 km/h - -
Wind:- - SSE
Pressure: 1026 hPa 1017.8 hPa -
Precipitation: 0 mm    
Historical Graphs
 
 
Tabular Data for October 17, 2017
Time Temperature Dew Point Pressure Wind Wind Speed Wind Gust Humidity Rainfall Rate (Hourly)
00:04 9.7 °C 4.3 °C 1020.9 hPa NNE 8.4 km/h 18.5 km/h 69 % 0 mm
00:09 9.6 °C 4.4 °C 1020.9 hPa North 13.5 km/h 20.4 km/h 70 % 0 mm
00:14 9.6 °C 4.2 °C 1020.9 hPa NE 10 km/h 25.9 km/h 69 % 0 mm
00:20 9.5 °C 3.9 °C 1021.2 hPa NNE 15 km/h 27.8 km/h 68 % 0 mm
00:25 9.5 °C 4.3 °C 1021.2 hPa North 9 km/h 16.7 km/h 70 % 0 mm
00:30 9.4 °C 4.2 °C 1021.2 hPa NNW 9.7 km/h 18.5 km/h 70 % 0 mm
00:35 9.4 °C 4.2 °C 1020.9 hPa North 10.8 km/h 20.4 km/h 70 % 0 mm
00:40 9.4 °C 4.4 °C 1020.9 hPa NNE 12.2 km/h 22.2 km/h 71 % 0 mm
00:45 9.3 °C 4.3 °C 1020.9 hPa North 5 km/h 14.8 km/h 71 % 0 mm
00:50 9.3 °C 4.3 °C 1021.2 hPa NNE 7.6 km/h 18.5 km/h 71 % 0 mm
00:55 9.3 °C 4.5 °C 1021.2 hPa NNE 9.7 km/h 16.7 km/h 72 % 0 mm
01:00 9.2 °C 4.4 °C 1020.9 hPa West 8.5 km/h 18.5 km/h 72 % 0 mm
01:05 9.2 °C 4.4 °C 1021.2 hPa North 8 km/h 18.5 km/h 72 % 0 mm
01:10 9.1 °C 4.3 °C 1021.2 hPa NNW 13 km/h 20.4 km/h 72 % 0 mm
01:15 9.1 °C 3.9 °C 1021.2 hPa North 8.2 km/h 14.8 km/h 70 % 0 mm
01:20 9 °C 4 °C 1021.2 hPa NNE 14.8 km/h 20.4 km/h 71 % 0 mm
01:25 8.9 °C 3.9 °C 1021.2 hPa NNW 13.8 km/h 20.9 km/h 71 % 0 mm
01:30 8.9 °C 4.2 °C 1021.2 hPa NNE 8.4 km/h 13 km/h 72 % 0 mm
01:35 8.9 °C 4.1 °C 1021.2 hPa NNE 12.1 km/h 18.5 km/h 72 % 0 mm
01:40 8.9 °C 3.9 °C 1021.2 hPa North 11.1 km/h 24.1 km/h 71 % 0 mm
01:45 8.8 °C 4.1 °C 1021.6 hPa North 10 km/h 18.5 km/h 72 % 0 mm
01:50 8.8 °C 3.7 °C 1021.6 hPa NNE 14.3 km/h 29.6 km/h 70 % 0 mm
01:56 8.8 °C 3.8 °C 1021.6 hPa North 11.3 km/h 22.5 km/h 71 % 0 mm
02:01 8.8 °C 3.6 °C 1021.6 hPa NNE 10 km/h 18.5 km/h 70 % 0 mm
02:06 8.8 °C 3.6 °C 1021.9 hPa North 9.7 km/h 18.5 km/h 70 % 0 mm
02:11 8.7 °C 3.6 °C 1021.9 hPa NNE 12.1 km/h 18.5 km/h 70 % 0 mm
02:16 8.7 °C 3.6 °C 1021.9 hPa NNW 17.1 km/h 29 km/h 70 % 0 mm
02:21 8.7 °C 3.3 °C 1021.9 hPa NNE 10.3 km/h 18.5 km/h 69 % 0 mm
02:26 8.7 °C 3.3 °C 1021.9 hPa NNE 10.3 km/h 19.3 km/h 69 % 0 mm
02:31 8.7 °C 3.3 °C 1021.9 hPa NNE 11.4 km/h 16.7 km/h 69 % 0 mm
02:36 8.7 °C 3.5 °C 1021.9 hPa ENE 11.1 km/h 17.7 km/h 70 % 0 mm
02:41 8.6 °C 3.1 °C 1021.9 hPa North 9.7 km/h 14.8 km/h 68 % 0 mm
02:46 8.6 °C 3.2 °C 1021.6 hPa NE 10.1 km/h 22.2 km/h 69 % 0 mm
02:51 8.6 °C 3.4 °C 1021.9 hPa NNE 12.6 km/h 20.9 km/h 70 % 0 mm
02:56 8.6 °C 3.4 °C 1021.6 hPa NNW 12.2 km/h 18.5 km/h 70 % 0 mm
03:01 8.6 °C 3 °C 1021.9 hPa North 11.6 km/h 22.2 km/h 68 % 0 mm
03:06 8.6 °C 3.4 °C 1021.9 hPa NNE 12.7 km/h 19.3 km/h 70 % 0 mm
03:12 8.5 °C 3.6 °C 1021.6 hPa NNE 13.4 km/h 24.1 km/h 71 % 0 mm
03:17 8.5 °C 3.9 °C 1021.6 hPa NNE 12.2 km/h 20.4 km/h 73 % 0 mm
03:22 8.4 °C 3.9 °C 1021.9 hPa NNE 11.6 km/h 20.4 km/h 73 % 0 mm
03:27 8.4 °C 3.6 °C 1021.6 hPa North 15.8 km/h 24.1 km/h 72 % 0 mm
03:32 8.4 °C 4 °C 1021.6 hPa NNW 8.4 km/h 16.7 km/h 74 % 0 mm
03:37 8.3 °C 3.6 °C 1021.9 hPa NE 8.4 km/h 18.5 km/h 72 % 0 mm
03:42 8.3 °C 3.7 °C 1021.9 hPa NNE 11.6 km/h 20.4 km/h 73 % 0 mm
03:47 8.3 °C 3.9 °C 1021.9 hPa NNE 14.5 km/h 18.5 km/h 74 % 0 mm
03:52 8.3 °C 4.1 °C 1021.9 hPa NNW 14.2 km/h 22.2 km/h 75 % 0 mm
03:57 8.2 °C 4.1 °C 1021.9 hPa North 11.7 km/h 14.5 km/h 75 % 0 mm
04:02 8.2 °C 3.7 °C 1021.9 hPa NNE 10.6 km/h 20.4 km/h 73 % 0 mm
04:07 8.2 °C 3.6 °C 1022.2 hPa North 15.1 km/h 18.5 km/h 73 % 0 mm
04:12 8.2 °C 3.4 °C 1022.9 hPa North 8.4 km/h 18.5 km/h 72 % 0 mm
04:17 8.2 °C 4 °C 1022.9 hPa NNE 13.2 km/h 25.7 km/h 75 % 0 mm
04:22 8.1 °C 3.9 °C 1022.6 hPa NE 8.9 km/h 18.5 km/h 75 % 0 mm
04:26 8.1 °C 4.1 °C 1022.6 hPa North 12.7 km/h 20.4 km/h 76 % 0 mm
04:31 8 °C 4 °C 1022.6 hPa NNE 10.8 km/h 18.5 km/h 76 % 0 mm
04:36 7.9 °C 4.3 °C 1022.6 hPa NNE 7.9 km/h 16.7 km/h 78 % 0 mm
04:41 7.8 °C 3.5 °C 1022.6 hPa NNE 12.4 km/h 22.5 km/h 74 % 0 mm
04:46 7.8 °C 3.6 °C 1022.9 hPa North 9.7 km/h 16.7 km/h 75 % 0 mm
04:51 7.8 °C 3.6 °C 1022.6 hPa NNE 11.9 km/h 18.5 km/h 75 % 0 mm
04:56 7.8 °C 3.6 °C 1022.9 hPa North 11.9 km/h 13 km/h 75 % 0 mm
05:01 7.8 °C 3.6 °C 1022.9 hPa North 6.6 km/h 16.7 km/h 75 % 0 mm
05:06 7.7 °C 3.6 °C 1022.9 hPa North 13.2 km/h 20.4 km/h 75 % 0 mm
05:11 7.7 °C 3.8 °C 1022.9 hPa NE 10.5 km/h 19.3 km/h 76 % 0 mm
05:16 7.7 °C 3.9 °C 1022.9 hPa NNE 14.8 km/h 20.4 km/h 77 % 0 mm
05:22 7.7 °C 3.6 °C 1022.9 hPa North 9.5 km/h 22.2 km/h 75 % 0 mm
05:27 7.8 °C 3.6 °C 1022.9 hPa North 7.9 km/h 18.5 km/h 75 % 0 mm
05:32 7.8 °C 3.8 °C 1023.2 hPa North 8.7 km/h 19.3 km/h 76 % 0 mm
05:37 7.8 °C 4 °C 1023.2 hPa NNE 10.3 km/h 13 km/h 77 % 0 mm
05:42 7.7 °C 3.6 °C 1023.2 hPa North 9.7 km/h 14.8 km/h 75 % 0 mm
05:47 7.7 °C 3.6 °C 1023.2 hPa NE 8.2 km/h 18.5 km/h 75 % 0 mm
05:52 7.7 °C 3.5 °C 1023.6 hPa NNE 9.3 km/h 16.7 km/h 75 % 0 mm
05:57 7.7 °C 3.5 °C 1023.6 hPa NNE 7.1 km/h 13 km/h 75 % 0 mm
06:02 7.7 °C 3.5 °C 1023.2 hPa North 10 km/h 18.5 km/h 75 % 0 mm
06:07 7.7 °C 3.3 °C 1023.6 hPa North 11.4 km/h 18.5 km/h 74 % 0 mm
06:12 7.7 °C 3.5 °C 1023.6 hPa NNE 6.9 km/h 13 km/h 75 % 0 mm
06:17 7.7 °C 3.7 °C 1023.6 hPa North 8.4 km/h 14.8 km/h 76 % 0 mm
06:27 7.7 °C 3.7 °C 1023.9 hPa NE 11.1 km/h 16.7 km/h 76 % 0 mm
06:32 7.7 °C 3.5 °C 1023.9 hPa North 12.9 km/h 18.5 km/h 75 % 0 mm
06:37 7.7 °C 3.5 °C 1023.9 hPa NNE 9.2 km/h 18.5 km/h 75 % 0 mm
06:42 7.7 °C 3.4 °C 1023.9 hPa NNE 12.4 km/h 20.4 km/h 74 % 0 mm
06:47 7.8 °C 3.8 °C 1023.9 hPa NNE 10.8 km/h 24.1 km/h 76 % 0 mm
06:52 7.8 °C 3.4 °C 1023.9 hPa NNE 13.4 km/h 20.4 km/h 74 % 0 mm
06:57 7.8 °C 3.4 °C 1024.3 hPa North 13.8 km/h 25.9 km/h 74 % 0 mm
07:02 7.8 °C 2.2 °C 1023.9 hPa North 15.4 km/h 25.9 km/h 68 % 0 mm
07:07 7.7 °C 2.4 °C 1024.3 hPa North 12.7 km/h 22.2 km/h 69 % 0 mm
07:12 7.7 °C 1.9 °C 1024.3 hPa North 10.3 km/h 18.5 km/h 67 % 0 mm
07:17 7.7 °C 2.7 °C 1024.3 hPa North 11.3 km/h 16.7 km/h 71 % 0 mm
07:23 7.6 °C 3.1 °C 1024.9 hPa North 10.8 km/h 18.5 km/h 73 % 0 mm
07:28 7.6 °C 3.3 °C 1024.6 hPa NNE 8.9 km/h 13 km/h 74 % 0 mm
07:33 7.6 °C 3.1 °C 1024.3 hPa NNE 8.4 km/h 18.5 km/h 73 % 0 mm
07:38 7.6 °C 2.8 °C 1024.3 hPa North 5.8 km/h 14.8 km/h 72 % 0 mm
07:43 7.5 °C 2.6 °C 1024.3 hPa North 7.1 km/h 14.5 km/h 71 % 0 mm
07:48 7.6 °C 2.4 °C 1024.6 hPa NNE 8.2 km/h 11.1 km/h 70 % 0 mm
07:53 7.6 °C 2 °C 1024.6 hPa NNW 9.7 km/h 18.5 km/h 68 % 0 mm
07:58 7.6 °C 1.8 °C 1024.6 hPa NNE 10.5 km/h 13 km/h 67 % 0 mm
08:03 7.7 °C 2.6 °C 1024.6 hPa NNW 6.3 km/h 18.5 km/h 70 % 0 mm
08:08 7.7 °C 2.1 °C 1024.6 hPa North 11.4 km/h 16.7 km/h 68 % 0 mm
08:13 7.7 °C 2.6 °C 1024.9 hPa NNE 7.9 km/h 14.8 km/h 70 % 0 mm
08:18 7.7 °C 2.8 °C 1024.6 hPa NNW 9 km/h 16.7 km/h 71 % 0 mm
08:23 7.7 °C 3 °C 1024.6 hPa North 13.2 km/h 18.5 km/h 72 % 0 mm
08:28 7.8 °C 3.5 °C 1024.6 hPa NW 10.1 km/h 14.5 km/h 74 % 0 mm
08:33 7.8 °C 3.1 °C 1024.9 hPa North 5.3 km/h 14.8 km/h 72 % 0 mm
08:38 7.8 °C 2.9 °C 1024.9 hPa NNE 8 km/h 13 km/h 71 % 0 mm
08:43 7.9 °C 3.4 °C 1024.9 hPa NNE 8.4 km/h 14.8 km/h 73 % 0 mm
08:48 7.9 °C 3.6 °C 1024.9 hPa North 7.7 km/h 13 km/h 74 % 0 mm
08:53 8 °C 3.7 °C 1025.3 hPa NNE 10 km/h 16.1 km/h 74 % 0 mm
08:58 8 °C 3.7 °C 1024.9 hPa NE 8.2 km/h 16.7 km/h 74 % 0 mm
09:07 8.1 °C 3.7 °C 1024.9 hPa NNE 8.9 km/h 18.5 km/h 74 % 0 mm
09:12 8.1 °C 3.5 °C 1024.9 hPa NNE 11.1 km/h 18.5 km/h 73 % 0 mm
09:17 8.1 °C 3.7 °C 1025.3 hPa NNE 6.6 km/h 14.8 km/h 74 % 0 mm
09:22 8.1 °C 3.7 °C 1024.9 hPa NNE 13.2 km/h 17.7 km/h 74 % 0 mm
09:27 8.1 °C 3.9 °C 1024.9 hPa NE 10 km/h 16.7 km/h 75 % 0 mm
09:32 8.2 °C 3.8 °C 1024.9 hPa North 6 km/h 9.7 km/h 74 % 0 mm
09:37 8.3 °C 4.1 °C 1024.9 hPa North 4.2 km/h 11.1 km/h 75 % 0 mm
09:42 8.4 °C 4 °C 1024.9 hPa NNE 5.6 km/h 13 km/h 74 % 0 mm
09:47 8.4 °C 4.1 °C 1024.9 hPa NNE 3.7 km/h 11.1 km/h 74 % 0 mm
09:52 8.6 °C 4.2 °C 1024.9 hPa NNE 7.4 km/h 11.1 km/h 74 % 0 mm
09:57 8.8 °C 4 °C 1024.9 hPa NNE 5.5 km/h 13 km/h 72 % 0 mm
10:02 9.1 °C 4.1 °C 1024.9 hPa North 5.8 km/h 14.8 km/h 71 % 0 mm
10:07 9.4 °C 3.8 °C 1024.9 hPa ENE 5.6 km/h 8 km/h 68 % 0 mm
10:12 9.7 °C 3.8 °C 1024.9 hPa NNW 9.5 km/h 12.9 km/h 67 % 0 mm
10:17 9.8 °C 3.7 °C 1024.6 hPa NNE 10.6 km/h 13 km/h 66 % 0 mm
10:19 9.8 °C 3.7 °C 1024.9 hPa North 7.7 km/h 11.3 km/h 66 % 0 mm
10:24 9.8 °C 3.3 °C 1024.6 hPa NE 5.1 km/h 16.7 km/h 64 % 0 mm
10:29 9.9 °C 3.9 °C 1024.6 hPa NE 5.1 km/h 7.4 km/h 66 % 0 mm
10:34 9.9 °C 3.8 °C 1024.6 hPa ENE 6.1 km/h 16.7 km/h 66 % 0 mm
10:35 9.9 °C 3.9 °C 1024.6 hPa ENE 6.1 km/h 16.7 km/h 66 % 0 mm
10:40 9.8 °C 3.3 °C 1024.6 hPa NE 2.4 km/h 7.4 km/h 64 % 0 mm
10:45 9.8 °C 3.8 °C 1024.6 hPa NNE 9.2 km/h 14.8 km/h 66 % 0 mm
10:50 9.8 °C 3.3 °C 1024.6 hPa NE 1.4 km/h 5.6 km/h 64 % 0 mm
10:55 9.8 °C 3.3 °C 1024.6 hPa NNE 5.3 km/h 9.7 km/h 64 % 0 mm
11:00 9.9 °C 3.2 °C 1024.6 hPa NNE 6.3 km/h 12.9 km/h 63 % 0 mm
11:05 9.9 °C 3 °C 1024.3 hPa North 0.3 km/h 5.6 km/h 62 % 0 mm
11:10 10.1 °C 3.3 °C 1024.6 hPa North 4 km/h 7.4 km/h 63 % 0 mm
11:15 10.2 °C 3.5 °C 1024.6 hPa NE 2.4 km/h 5.6 km/h 63 % 0 mm
11:20 10.5 °C 3.1 °C 1024.3 hPa NE 5.1 km/h 7.4 km/h 60 % 0 mm
11:25 10.9 °C 2.5 °C 1024.3 hPa ENE 4.2 km/h 7.4 km/h 56 % 0 mm
11:30 11.5 °C 3.8 °C 1024.6 hPa North 6.4 km/h 9.3 km/h 59 % 0 mm
11:35 12.2 °C 4.2 °C 1024.6 hPa NNE 4 km/h 9.3 km/h 58 % 0 mm
11:40 12.8 °C 4.9 °C 1024.6 hPa North 4 km/h 9.3 km/h 59 % 0 mm
11:45 13.2 °C 4.9 °C 1024.6 hPa NNE 4.2 km/h 9.7 km/h 57 % 0 mm
11:50 13.4 °C 4.6 °C 1024.3 hPa ENE 0.5 km/h 1.9 km/h 55 % 0 mm
11:55 14.1 °C 4.9 °C 1024.3 hPa ENE 1.1 km/h 11.1 km/h 54 % 0 mm
12:01 14.3 °C 4.6 °C 1024.3 hPa NNE 1.8 km/h 3.7 km/h 52 % 0 mm
12:06 14.7 °C 5.2 °C 1024.3 hPa North 5.1 km/h 9.3 km/h 53 % 0 mm
12:11 14.8 °C 4.2 °C 1024.3 hPa North 5.5 km/h 9.3 km/h 49 % 0 mm
12:16 14.8 °C 5.3 °C 1024.3 hPa NNE 2.1 km/h 5.6 km/h 53 % 0 mm
12:21 14.8 °C 4.2 °C 1024.3 hPa NNE 4.5 km/h 7.4 km/h 49 % 0 mm
12:24 14.8 °C 4.8 °C 1024.3 hPa NNE 1.1 km/h 3.7 km/h 51 % 0 mm
12:29 14.8 °C 5 °C 1024.3 hPa NNE 6.6 km/h 8 km/h 52 % 0 mm
12:34 14.8 °C 4.2 °C 1024.3 hPa NW 3.7 km/h 6.4 km/h 49 % 0 mm
12:39 14.7 °C 4.9 °C 1024.3 hPa NNW 0.2 km/h 3.7 km/h 52 % 0 mm
12:44 14.7 °C 4.1 °C 1023.9 hPa NNE 3.2 km/h 6.4 km/h 49 % 0 mm
12:49 14.6 °C 4 °C 1023.9 hPa NNW 2.1 km/h 5.6 km/h 49 % 0 mm
12:54 14.5 °C 3.9 °C 1023.9 hPa North 1 km/h 7.4 km/h 49 % 0 mm
12:59 14.6 °C 4.2 °C 1023.9 hPa WNW 3.1 km/h 6.4 km/h 50 % 0 mm
13:00 14.6 °C 4.2 °C 1023.9 hPa WNW 4.2 km/h 5.6 km/h 50 % 0 mm
13:05 14.6 °C 4.3 °C 1024.6 hPa WSW 3.5 km/h 7.4 km/h 50 % 0 mm
13:10 14.6 °C 5.1 °C 1023.9 hPa North 1.9 km/h 5.6 km/h 53 % 0 mm
13:15 14.6 °C 3.7 °C 1023.6 hPa North 2.3 km/h 4.8 km/h 48 % 0 mm
13:20 14.6 °C 3.4 °C 1023.9 hPa North 0.5 km/h 3.7 km/h 47 % 0 mm
13:25 14.7 °C 5.5 °C 1023.6 hPa NNE 1 km/h 3.7 km/h 54 % 0 mm
13:30 14.8 °C 3.9 °C 1023.6 hPa Calm     48 % 0 mm
13:36 15.1 °C 5.5 °C 1023.6 hPa NNW 3.2 km/h 8 km/h 53 % 0 mm
13:41 15.2 °C 4.5 °C 1023.6 hPa WNW 1.3 km/h 6.4 km/h 49 % 0 mm
13:46 15.2 °C 3.6 °C 1023.2 hPa West 1 km/h 5.6 km/h 46 % 0 mm
13:51 15.2 °C 4.6 °C 1023.6 hPa West 2.9 km/h 5.6 km/h 49 % 0 mm
13:56 15.3 °C 4.9 °C 1023.6 hPa WNW 4.5 km/h 7.4 km/h 50 % 0 mm
14:01 15.3 °C 4.3 °C 1023.6 hPa West 2.6 km/h 5.6 km/h 48 % 0 mm
14:06 15.3 °C 4.7 °C 1023.6 hPa West 1.1 km/h 1.9 km/h 49 % 0 mm
14:11 15.4 °C 4.7 °C 1023.6 hPa WSW 5.5 km/h 11.3 km/h 49 % 0 mm
14:16 15.4 °C 4.5 °C 1023.2 hPa SW 7.9 km/h 11.1 km/h 48 % 0 mm
14:21 15.4 °C 4.2 °C 1023.2 hPa WSW 1.6 km/h 3.7 km/h 47 % 0 mm
14:26 15.4 °C 4.5 °C 1023.2 hPa WSW 0.6 km/h 7.4 km/h 48 % 0 mm
14:31 15.5 °C 4.2 °C 1022.9 hPa WSW 2.9 km/h 3.7 km/h 47 % 0 mm
14:33 15.5 °C 3.9 °C 1023.2 hPa WSW 3.9 km/h 11.1 km/h 46 % 0 mm
14:38 15.6 °C 4.3 °C 1023.2 hPa WSW 3.7 km/h 5.6 km/h 47 % 0 mm
14:43 15.6 °C 4.6 °C 1023.2 hPa SW 1.1 km/h 7.4 km/h 48 % 0 mm
14:48 15.6 °C 3.9 °C 1022.9 hPa WNW 3.1 km/h 8 km/h 46 % 0 mm
14:53 15.6 °C 4.6 °C 1022.9 hPa WNW 0.3 km/h 1.9 km/h 48 % 0 mm
14:58 15.5 °C 4.5 °C 1022.9 hPa SW 1.1 km/h 11.1 km/h 48 % 0 mm
15:03 15.5 °C 3.9 °C 1022.9 hPa SSW 5.5 km/h 7.4 km/h 46 % 0 mm
15:08 15.4 °C 3.9 °C 1022.9 hPa WNW 1.9 km/h 5.6 km/h 46 % 0 mm
15:13 15.4 °C 3.8 °C 1022.9 hPa West 5.6 km/h 11.1 km/h 46 % 0 mm
15:18 15.3 °C 3.7 °C 1022.6 hPa WSW 1.6 km/h 3.7 km/h 46 % 0 mm
15:23 15.2 °C 4.3 °C 1022.6 hPa SW 0.5 km/h 5.6 km/h 48 % 0 mm
15:28 15.1 °C 2.9 °C 1022.6 hPa NW 3.5 km/h 6.4 km/h 44 % 0 mm
15:33 14.9 °C 2.8 °C 1022.6 hPa WSW 5.6 km/h 9.3 km/h 44 % 0 mm
15:38 14.8 °C 3 °C 1022.6 hPa WSW 1.3 km/h 3.7 km/h 45 % 0 mm
15:43 14.7 °C 3.2 °C 1022.6 hPa WNW 2.6 km/h 8 km/h 46 % 0 mm
15:48 14.6 °C 3.1 °C 1022.2 hPa WNW 4.3 km/h 9.3 km/h 46 % 0 mm
15:53 14.4 °C 2.9 °C 1022.6 hPa WSW 1.3 km/h 5.6 km/h 46 % 0 mm
15:58 14.3 °C 2.6 °C 1022.6 hPa WSW 3.5 km/h 7.4 km/h 45 % 0 mm
16:03 14.3 °C 3.1 °C 1022.2 hPa SW 2.4 km/h 7.4 km/h 47 % 0 mm
16:09 14.1 °C 2.7 °C 1022.2 hPa SW 2.7 km/h 5.6 km/h 46 % 0 mm
16:14 14.1 °C 2.9 °C 1022.2 hPa WSW 3.7 km/h 5.6 km/h 47 % 0 mm
16:19 14 °C 2.8 °C 1022.2 hPa Calm   1.6 km/h 47 % 0 mm
16:24 13.9 °C 2.8 °C 1022.2 hPa WSW 3.9 km/h 5.6 km/h 47 % 0 mm
16:29 13.8 °C 3 °C 1022.2 hPa SSW 6 km/h 7.4 km/h 48 % 0 mm
16:34 13.8 °C 2.7 °C 1022.6 hPa WSW 6.4 km/h 9.3 km/h 47 % 0 mm
16:39 13.7 °C 2.9 °C 1022.2 hPa Calm   1.6 km/h 48 % 0 mm
16:41 13.7 °C 2.6 °C 1022.2 hPa WSW 0.5 km/h 1.9 km/h 47 % 0 mm
16:46 13.7 °C 3.1 °C 1021.9 hPa West 3.1 km/h 5.6 km/h 49 % 0 mm
16:51 13.6 °C 3.1 °C 1021.9 hPa Calm   1.9 km/h 49 % 0 mm
16:56 13.6 °C 3.1 °C 1021.9 hPa West 0.6 km/h 1.9 km/h 49 % 0 mm
17:01 13.5 °C 3 °C 1021.9 hPa Calm     49 % 0 mm
17:06 13.5 °C 3.3 °C 1021.9 hPa West 0.2 km/h 1.6 km/h 50 % 0 mm
17:11 13.4 °C 3.5 °C 1021.9 hPa Calm     51 % 0 mm
17:16 13.4 °C 3.4 °C 1021.9 hPa Calm     51 % 0 mm
17:21 13.3 °C 3.7 °C 1021.9 hPa Calm     52 % 0 mm
17:26 13.3 °C 4.2 °C 1021.9 hPa Calm     54 % 0 mm
17:32 13.2 °C 4.1 °C 1021.9 hPa Calm     54 % 0 mm
17:37 13.1 °C 4.5 °C 1022.2 hPa Calm     56 % 0 mm
17:42 13.1 °C 4.7 °C 1021.9 hPa Calm     57 % 0 mm
17:47 12.9 °C 5.1 °C 1022.2 hPa Calm   1.9 km/h 59 % 0 mm
17:52 12.8 °C 5.2 °C 1022.2 hPa Calm     60 % 0 mm
17:57 12.6 °C 5.5 °C 1021.9 hPa Calm     62 % 0 mm
18:02 12.4 °C 5.6 °C 1022.2 hPa Calm     63 % 0 mm
18:06 12.3 °C 5.7 °C 1022.2 hPa Calm     64 % 0 mm
18:11 12.1 °C 5.5 °C 1022.2 hPa Calm     64 % 0 mm
18:16 11.9 °C 5.3 °C 1022.2 hPa Calm   1.9 km/h 64 % 0 mm
18:21 11.7 °C 4.9 °C 1022.2 hPa West 1.1 km/h 1.9 km/h 63 % 0 mm
18:27 11.6 °C 5 °C 1022.2 hPa Calm     64 % 0 mm
18:32 11.4 °C 4.9 °C 1022.2 hPa Calm   1.9 km/h 64 % 0 mm
18:37 11.3 °C 4.9 °C 1022.2 hPa Calm     65 % 0 mm
18:42 11.1 °C 5 °C 1022.2 hPa Calm     66 % 0 mm
18:47 11 °C 4.9 °C 1022.2 hPa Calm     66 % 0 mm
18:57 10.7 °C 5 °C 1022.6 hPa Calm     68 % 0 mm
19:02 10.6 °C 5.1 °C 1022.6 hPa Calm     69 % 0 mm
19:07 10.4 °C 5.2 °C 1022.6 hPa Calm     70 % 0 mm
19:12 10.3 °C 5.1 °C 1022.9 hPa West 0.3 km/h 1.6 km/h 70 % 0 mm
19:17 10.2 °C 4.9 °C 1022.9 hPa Calm     70 % 0 mm
19:22 10 °C 5 °C 1022.9 hPa Calm   1.9 km/h 71 % 0 mm
19:27 9.9 °C 4.9 °C 1022.9 hPa Calm     71 % 0 mm
19:32 9.8 °C 5 °C 1022.9 hPa Calm     72 % 0 mm
19:37 9.7 °C 4.9 °C 1022.9 hPa Calm     72 % 0 mm
19:42 9.7 °C 5.1 °C 1022.9 hPa Calm     73 % 0 mm
19:47 9.6 °C 5 °C 1022.9 hPa Calm     73 % 0 mm
19:52 9.6 °C 4.9 °C 1023.2 hPa Calm   1.9 km/h 73 % 0 mm
19:57 9.5 °C 4.9 °C 1023.2 hPa West 0.2 km/h 1.9 km/h 73 % 0 mm
20:02 9.4 °C 5.1 °C 1022.9 hPa West 0.2 km/h 1.9 km/h 74 % 0 mm
20:07 9.4 °C 5.1 °C 1022.9 hPa Calm   1.9 km/h 74 % 0 mm
20:08 9.4 °C 5 °C 1022.9 hPa Calm   1.9 km/h 74 % 0 mm
20:13 9.4 °C 5 °C 1022.9 hPa West 1.3 km/h 3.7 km/h 74 % 0 mm
20:18 9.3 °C 4.9 °C 1022.9 hPa WSW 0.8 km/h 3.7 km/h 74 % 0 mm
20:23 9.3 °C 4.9 °C 1022.9 hPa SW 0.6 km/h 5.6 km/h 74 % 0 mm
20:28 9.3 °C 4.9 °C 1022.9 hPa SW 0.2 km/h 1.9 km/h 74 % 0 mm
20:34 9.3 °C 4.9 °C 1022.9 hPa SW 0.8 km/h 3.7 km/h 74 % 0 mm
20:39 9.3 °C 5.1 °C 1022.9 hPa SW 0.3 km/h 1.9 km/h 75 % 0 mm
20:44 9.4 °C 5.2 °C 1022.9 hPa SW 0.3 km/h 3.7 km/h 75 % 0 mm
20:49 9.4 °C 5.2 °C 1022.9 hPa Calm   1.9 km/h 75 % 0 mm
20:54 9.4 °C 5.2 °C 1022.9 hPa Calm   3.7 km/h 75 % 0 mm
20:59 9.5 °C 5.3 °C 1023.2 hPa Calm     75 % 0 mm
21:04 9.6 °C 5.3 °C 1023.2 hPa Calm   1.6 km/h 75 % 0 mm
21:09 9.6 °C 5.4 °C 1023.2 hPa SW 1.4 km/h 3.7 km/h 75 % 0 mm
21:14 9.6 °C 5.4 °C 1023.2 hPa SW 0.2 km/h 1.9 km/h 75 % 0 mm
21:19 9.7 °C 5.4 °C 1023.2 hPa SW 0.2 km/h   75 % 0 mm
21:24 9.7 °C 5.4 °C 1022.9 hPa Calm   1.6 km/h 75 % 0 mm
21:29 9.7 °C 5.4 °C 1022.9 hPa Calm     75 % 0 mm
21:34 9.7 °C 5.5 °C 1023.2 hPa SW 0.2 km/h 4.8 km/h 75 % 0 mm
21:39 9.7 °C 5.5 °C 1023.2 hPa SW 1 km/h 3.2 km/h 75 % 0 mm
21:44 9.7 °C 5.5 °C 1023.2 hPa SW 1.3 km/h 3.2 km/h 75 % 0 mm
21:49 9.8 °C 5.7 °C 1023.2 hPa SW 0.3 km/h 3.2 km/h 76 % 0 mm
21:54 9.8 °C 5.7 °C 1022.9 hPa SW 1.4 km/h 3.7 km/h 76 % 0 mm
21:59 9.8 °C 6 °C 1022.9 hPa SW 0.5 km/h 1.9 km/h 77 % 0 mm
22:04 9.9 °C 6.1 °C 1023.2 hPa SW 0.3 km/h 3.7 km/h 77 % 0 mm
22:09 9.9 °C 6.3 °C 1023.2 hPa SW 0.3 km/h 1.9 km/h 78 % 0 mm
22:14 9.9 °C 6.3 °C 1023.2 hPa WSW 2.6 km/h 7.4 km/h 78 % 0 mm
22:19 10 °C 6.3 °C 1023.2 hPa SW 1.9 km/h 5.6 km/h 78 % 0 mm
22:24 10.1 °C 6.6 °C 1023.2 hPa SW 0.2 km/h 9.3 km/h 79 % 0 mm
22:29 10.1 °C 6.4 °C 1023.2 hPa WSW 4.3 km/h 11.1 km/h 78 % 0 mm
22:34 10.2 °C 6.5 °C 1023.2 hPa SW 0.2 km/h 3.7 km/h 78 % 0 mm
22:39 10.2 °C 6.6 °C 1025.6 hPa SW 0.5 km/h 1.9 km/h 78 % 0 mm
22:44 10.2 °C 6.7 °C 1025.6 hPa WSW 2.1 km/h 5.6 km/h 79 % 0 mm
22:49 10.3 °C 6.8 °C 1025.3 hPa SW 1.4 km/h 5.6 km/h 79 % 0 mm
22:54 10.3 °C 6.8 °C 1025.6 hPa WSW 1.8 km/h 3.7 km/h 79 % 0 mm
22:59 10.3 °C 6.7 °C 1025.6 hPa SW 1.8 km/h 5.6 km/h 78 % 0 mm
23:04 10.4 °C 6.7 °C 1025.3 hPa WSW 1.4 km/h 9.3 km/h 78 % 0 mm
23:09 10.3 °C 6.7 °C 1025.3 hPa WSW 0.3 km/h 1.9 km/h 78 % 0 mm
23:15 10.3 °C 6.7 °C 1025.3 hPa SW 3.7 km/h 9.7 km/h 78 % 0 mm
23:20 10.3 °C 6.7 °C 1025.3 hPa WSW 3.2 km/h 9.7 km/h 78 % 0 mm
23:23 10.3 °C 6.7 °C 1018.2 hPa WSW 1.9 km/h 3.7 km/h 78 % 0 mm
23:26 10.3 °C 6.7 °C 1025.6 hPa WSW 0.2 km/h 1.9 km/h 78 % 0 mm
23:27 10.3 °C 6.7 °C 1025.3 hPa WSW 0.3 km/h 3.7 km/h 78 % 0 mm
23:30 10.3 °C 6.7 °C 1017.8 hPa Calm   1.9 km/h 78 % 0 mm
23:35 10.3 °C 6.6 °C 1025.3 hPa Calm   3.7 km/h 78 % 0 mm
23:40 10.3 °C 6.6 °C 1017.8 hPa WSW 1.1 km/h 3.7 km/h 78 % 0 mm
23:45 10.2 °C 6.6 °C 1025.3 hPa WSW 0.6 km/h 1.9 km/h 78 % 0 mm
23:50 10.2 °C 6.5 °C 1024.9 hPa WSW 1.1 km/h 7.4 km/h 78 % 0 mm
23:55 10.2 °C 6.3 °C 1025.3 hPa SW 1.1 km/h 5.6 km/h 77 % 0 mm
23:56 10.2 °C 6.3 °C 1026 hPa SW 0.3 km/h 5.6 km/h 77 % 0 mm
Crab Meadow Weather
Compliments of Weather Underground - 3 mb

Script developed by  Jim McMurry - jmcmurry@mwt.net Adapted for the template by  Wim van der Kuil - Leuven-Template.eu

Weather Terms: Flood Warning - General or areal flooding of streets, low-lying areas, urban storm drains, creeks and small streams is occurring, imminent, or highly likely. Flood warnings are issued for flooding that occurs more than 6 hours after the excessive rainfall. These warnings are issued on a county by county basis by the local Weather Forecast Office in Upton and are generally in effect for 6 to 12 hours.